Time,TemperatureF,DewpointF,PressureIn,WindDirection,WindDirectionDegrees,WindSpeedMPH,WindSpeedGustMPH,Humidity,HourlyPrecipIn,Conditions,Clouds,dailyrainin,SoftwareType,DateUTC
2013-06-18 00:00:00,67.1,64.4,29.87,SSE,147,0.0,0.0,91,0.00,,---,0.22,VWS V14.01,2013-06-18 04:00:00,
2013-06-18 00:01:00,67.0,64.3,29.87,SE,146,0.0,0.0,91,0.00,,---,0.00,VWS V14.01,2013-06-18 04:01:00,
2013-06-18 08:36:00,66.8,64.1,29.85,WSW,240,0.0,0.0,91,0.00,,---,0.00,VWS V14.01,2013-06-18 12:36:00,
2013-06-18 08:40:00,66.7,64.0,29.85,WSW,238,0.0,0.0,91,0.00,,---,0.00,VWS V14.01,2013-06-18 12:40:00,
2013-06-18 08:41:00,66.8,64.1,29.85,WSW,238,0.0,0.0,91,0.00,,---,0.00,VWS V14.01,2013-06-18 12:41:00,
2013-06-18 08:46:00,66.9,64.2,29.85,NNW,340,0.0,0.0,91,0.00,,---,0.00,VWS V14.01,2013-06-18 12:46:00,
2013-06-18 08:50:00,66.9,64.2,29.85,NNW,340,1.0,1.0,91,0.00,,---,0.00,VWS V14.01,2013-06-18 12:50:00,
2013-06-18 08:51:00,66.9,64.2,29.84,NNW,339,0.0,1.0,91,0.00,,---,0.00,VWS V14.01,2013-06-18 12:51:00,
2013-06-18 08:56:00,66.8,64.1,29.84,NNW,340,0.0,1.0,91,0.00,,---,0.00,VWS V14.01,2013-06-18 12:56:00,
2013-06-18 09:00:00,66.9,64.2,29.84,NNW,339,0.0,1.0,91,0.00,,---,0.00,VWS V14.01,2013-06-18 13:00:00,
2013-06-18 09:01:00,66.9,63.9,29.84,NNW,340,0.0,0.0,90,0.00,,---,0.00,VWS V14.01,2013-06-18 13:01:00,
2013-06-18 09:06:00,67.1,64.4,29.84,SE,138,0.0,0.0,91,0.00,,---,0.00,VWS V14.01,2013-06-18 13:06:00,
2013-06-18 09:10:00,67.2,64.5,29.85,NNW,327,0.0,0.0,91,0.00,,---,0.00,VWS V14.01,2013-06-18 13:10:00,
2013-06-18 09:11:00,67.2,64.5,29.84,NNE,31,0.0,1.0,91,0.00,,---,0.00,VWS V14.01,2013-06-18 13:11:00,
2013-06-18 09:16:00,67.3,64.6,29.84,NNW,344,0.0,1.0,91,0.00,,---,0.00,VWS V14.01,2013-06-18 13:16:00,
2013-06-18 09:20:00,67.4,64.7,29.84,NNW,346,0.0,1.0,91,0.00,,---,0.00,VWS V14.01,2013-06-18 13:20:00,
2013-06-18 09:21:00,67.4,64.7,29.84,ESE,115,0.0,0.0,91,0.00,,---,0.00,VWS V14.01,2013-06-18 13:21:00,
2013-06-18 09:26:00,67.5,64.8,29.83,NNE,15,1.0,1.0,91,0.00,,---,0.00,VWS V14.01,2013-06-18 13:26:00,
2013-06-18 09:30:00,67.4,64.7,29.83,NW,313,0.0,1.0,91,0.00,,---,0.00,VWS V14.01,2013-06-18 13:30:00,
2013-06-18 09:31:00,67.3,64.6,29.83,ESE,116,0.0,4.0,91,0.00,,---,0.00,VWS V14.01,2013-06-18 13:31:00,
2013-06-18 09:36:00,67.2,64.5,29.83,ESE,120,0.0,5.0,91,0.00,,---,0.00,VWS V14.01,2013-06-18 13:36:00,
2013-06-18 09:40:00,67.2,64.5,29.83,South,172,0.0,5.0,91,0.00,,---,0.00,VWS V14.01,2013-06-18 13:40:00,
2013-06-18 09:41:00,67.3,64.6,29.83,SW,230,0.0,2.0,91,0.00,,---,0.00,VWS V14.01,2013-06-18 13:41:00,
2013-06-18 09:46:00,67.3,64.6,29.84,WNW,300,0.0,2.0,91,0.00,,---,0.00,VWS V14.01,2013-06-18 13:46:00,
2013-06-18 09:50:00,67.4,64.7,29.84,South,169,1.0,4.0,91,0.00,,---,0.00,VWS V14.01,2013-06-18 13:50:00,
2013-06-18 09:51:00,67.4,65.0,29.83,NW,306,0.0,2.0,92,0.00,,---,0.00,VWS V14.01,2013-06-18 13:51:00,
2013-06-18 09:56:00,67.5,65.1,29.83,WSW,250,0.0,2.0,92,0.00,,---,0.00,VWS V14.01,2013-06-18 13:56:00,
2013-06-18 10:00:00,67.6,65.2,29.83,WSW,240,5.0,5.0,92,0.00,,---,0.00,VWS V14.01,2013-06-18 14:00:00,
2013-06-18 10:01:00,67.6,65.2,29.84,NW,318,2.0,6.0,92,0.00,,---,0.00,VWS V14.01,2013-06-18 14:01:00,
2013-06-18 10:06:00,67.5,64.8,29.84,NNW,340,1.0,6.0,91,0.00,,---,0.00,VWS V14.01,2013-06-18 14:06:00,
2013-06-18 10:10:00,67.5,64.8,29.83,NNE,12,1.0,6.0,91,0.00,,---,0.00,VWS V14.01,2013-06-18 14:10:00,
2013-06-18 10:11:00,67.5,64.8,29.83,NW,310,2.0,3.0,91,0.00,,---,0.00,VWS V14.01,2013-06-18 14:11:00,
2013-06-18 10:16:00,67.5,64.8,29.83,NNW,338,0.0,4.0,91,0.00,,---,0.00,VWS V14.01,2013-06-18 14:16:00,
2013-06-18 10:20:00,67.6,64.9,29.83,WNW,299,0.0,4.0,91,0.00,,---,0.00,VWS V14.01,2013-06-18 14:20:00,
2013-06-18 10:21:00,67.7,65.0,29.83,ESE,123,0.0,1.0,91,0.00,,---,0.00,VWS V14.01,2013-06-18 14:21:00,
2013-06-18 10:26:00,67.8,65.1,29.83,SE,124,0.0,1.0,91,0.00,,---,0.00,VWS V14.01,2013-06-18 14:26:00,
2013-06-18 10:30:00,67.9,65.2,29.83,ESE,123,0.0,1.0,91,0.00,,---,0.00,VWS V14.01,2013-06-18 14:30:00,
2013-06-18 10:31:00,68.0,65.3,29.83,ESE,123,0.0,0.0,91,0.00,,---,0.00,VWS V14.01,2013-06-18 14:31:00,
2013-06-18 10:36:00,68.2,65.5,29.83,SE,138,0.0,0.0,91,0.00,,---,0.00,VWS V14.01,2013-06-18 14:36:00,
2013-06-18 10:40:00,68.3,65.3,29.83,SE,130,0.0,0.0,90,0.00,,---,0.00,VWS V14.01,2013-06-18 14:40:00,
2013-06-18 10:41:00,68.3,65.3,29.83,SE,129,0.0,0.0,90,0.00,,---,0.00,VWS V14.01,2013-06-18 14:41:00,
2013-06-18 10:46:00,68.4,65.4,29.83,SE,136,0.0,2.0,90,0.00,,---,0.00,VWS V14.01,2013-06-18 14:46:00,
2013-06-18 10:50:00,68.5,65.5,29.83,SE,136,0.0,2.0,90,0.00,,---,0.00,VWS V14.01,2013-06-18 14:50:00,
2013-06-18 10:51:00,68.6,65.2,29.83,SE,144,0.0,1.0,89,0.00,,---,0.00,VWS V14.01,2013-06-18 14:51:00,
2013-06-18 10:56:00,68.7,65.3,29.83,SSE,150,0.0,2.0,89,0.00,,---,0.00,VWS V14.01,2013-06-18 14:56:00,
2013-06-18 11:00:00,68.7,65.3,29.83,SE,145,2.0,5.0,89,0.00,,---,0.00,VWS V14.01,2013-06-18 15:00:00,
2013-06-18 11:01:00,68.9,65.5,29.83,South,171,2.0,4.0,89,0.00,,---,0.00,VWS V14.01,2013-06-18 15:01:00,
2013-06-18 11:06:00,69.0,65.6,29.83,SSE,159,0.0,5.0,89,0.00,,---,0.00,VWS V14.01,2013-06-18 15:06:00,
2013-06-18 11:10:00,69.0,65.3,29.83,SSW,211,0.0,5.0,88,0.00,,---,0.00,VWS V14.01,2013-06-18 15:10:00,
2013-06-18 11:11:00,69.2,65.8,29.83,WSW,252,0.0,0.0,89,0.00,,---,0.00,VWS V14.01,2013-06-18 15:11:00,
2013-06-18 11:16:00,69.4,66.0,29.83,NW,310,0.0,1.0,89,0.00,,---,0.00,VWS V14.01,2013-06-18 15:16:00,
2013-06-18 11:20:00,69.5,65.8,29.83,West,262,0.0,1.0,88,0.00,,---,0.00,VWS V14.01,2013-06-18 15:20:00,
2013-06-18 11:21:00,69.7,66.3,29.83,West,260,0.0,0.0,89,0.00,,---,0.00,VWS V14.01,2013-06-18 15:21:00,
2013-06-18 11:26:00,69.9,66.2,29.83,WSW,237,0.0,0.0,88,0.00,,---,0.00,VWS V14.01,2013-06-18 15:26:00,
2013-06-18 11:30:00,70.1,66.4,29.83,WSW,239,0.0,0.0,88,0.00,,---,0.00,VWS V14.01,2013-06-18 15:30:00,
2013-06-18 11:31:00,70.2,66.2,29.83,WSW,238,0.0,0.0,87,0.00,,---,0.00,VWS V14.01,2013-06-18 15:31:00,
2013-06-18 11:36:00,70.3,66.2,29.84,WSW,257,0.0,1.0,87,0.00,,---,0.00,VWS V14.01,2013-06-18 15:36:00,
2013-06-18 11:40:00,70.3,66.2,29.84,WSW,246,0.0,2.0,87,0.00,,---,0.00,VWS V14.01,2013-06-18 15:40:00,
2013-06-18 11:41:00,70.3,66.2,29.84,SSW,213,0.0,0.0,87,0.00,,---,0.00,VWS V14.01,2013-06-18 15:41:00,
2013-06-18 11:46:00,70.3,66.2,29.84,SSE,168,4.0,4.0,87,0.00,,---,0.00,VWS V14.01,2013-06-18 15:46:00,
2013-06-18 11:50:00,70.3,66.6,29.84,WSW,244,2.0,4.0,88,0.00,,---,0.00,VWS V14.01,2013-06-18 15:50:00,
2013-06-18 11:51:00,70.3,66.6,29.84,SSW,203,0.0,2.0,88,0.00,,---,0.00,VWS V14.01,2013-06-18 15:51:00,
2013-06-18 11:56:00,70.5,66.8,29.84,WNW,291,1.0,6.0,88,0.00,,---,0.00,VWS V14.01,2013-06-18 15:56:00,
2013-06-18 12:00:00,70.6,66.9,29.84,South,180,0.0,6.0,88,0.00,,---,0.00,VWS V14.01,2013-06-18 16:00:00,
2013-06-18 12:01:00,70.8,67.1,29.84,SW,217,0.0,0.0,88,0.00,,---,0.00,VWS V14.01,2013-06-18 16:01:00,
2013-06-18 12:06:00,70.8,67.1,29.84,WSW,254,0.0,4.0,88,0.00,,---,0.00,VWS V14.01,2013-06-18 16:06:00,
2013-06-18 12:10:00,70.8,66.7,29.84,SSW,207,0.0,4.0,87,0.00,,---,0.00,VWS V14.01,2013-06-18 16:10:00,
2013-06-18 12:11:00,70.9,67.2,29.84,WSW,240,0.0,1.0,88,0.00,,---,0.00,VWS V14.01,2013-06-18 16:11:00,
2013-06-18 12:16:00,71.0,67.3,29.84,NE,34,0.0,3.0,88,0.00,,---,0.00,VWS V14.01,2013-06-18 16:16:00,
2013-06-18 12:20:00,71.1,67.4,29.84,WSW,254,0.0,3.0,88,0.00,,---,0.00,VWS V14.01,2013-06-18 16:20:00,
2013-06-18 12:21:00,71.2,67.5,29.84,SW,230,0.0,2.0,88,0.00,,---,0.00,VWS V14.01,2013-06-18 16:21:00,
2013-06-18 12:26:00,71.4,67.3,29.84,WSW,256,0.0,2.0,87,0.00,,---,0.00,VWS V14.01,2013-06-18 16:26:00,
2013-06-18 12:30:00,71.4,67.0,29.83,SE,142,2.0,5.0,86,0.00,,---,0.00,VWS V14.01,2013-06-18 16:30:00,
2013-06-18 12:31:00,71.4,67.0,29.83,WSW,242,1.0,6.0,86,0.00,,---,0.00,VWS V14.01,2013-06-18 16:31:00,
2013-06-18 12:36:00,71.5,67.4,29.83,SSW,203,0.0,6.0,87,0.00,,---,0.00,VWS V14.01,2013-06-18 16:36:00,
2013-06-18 12:40:00,71.7,67.3,29.84,WNW,286,0.0,6.0,86,0.00,,---,0.00,VWS V14.01,2013-06-18 16:40:00,
2013-06-18 12:41:00,71.7,66.9,29.84,SW,222,0.0,2.0,85,0.00,,---,0.00,VWS V14.01,2013-06-18 16:41:00,
2013-06-18 12:46:00,72.0,67.6,29.83,WSW,249,0.0,2.0,86,0.00,,---,0.00,VWS V14.01,2013-06-18 16:46:00,
2013-06-18 12:50:00,72.2,67.4,29.83,WSW,254,0.0,2.0,85,0.00,,---,0.00,VWS V14.01,2013-06-18 16:50:00,
2013-06-18 12:51:00,72.6,67.5,29.84,NW,306,3.0,3.0,84,0.00,,---,0.00,VWS V14.01,2013-06-18 16:51:00,
2013-06-18 12:56:00,72.6,66.8,29.84,NNW,329,2.0,6.0,82,0.00,,---,0.00,VWS V14.01,2013-06-18 16:56:00,
2013-06-18 13:00:00,72.5,67.1,29.84,SSW,198,0.0,6.0,83,0.00,,---,0.00,VWS V14.01,2013-06-18 17:00:00,
2013-06-18 13:01:00,72.6,67.2,29.83,WSW,242,0.0,2.0,83,0.00,,---,0.00,VWS V14.01,2013-06-18 17:01:00,
2013-06-18 13:07:00,72.8,67.0,29.83,WSW,248,0.0,5.0,82,0.00,,---,0.00,VWS V14.01,2013-06-18 17:07:00,
2013-06-18 13:10:00,72.8,67.3,29.83,East,96,0.0,5.0,83,0.00,,---,0.00,VWS V14.01,2013-06-18 17:10:00,
2013-06-18 13:12:00,72.9,67.4,29.84,West,275,2.0,3.0,83,0.00,,---,0.00,VWS V14.01,2013-06-18 17:12:00,
2013-06-18 13:17:00,72.9,67.4,29.84,NE,40,0.0,4.0,83,0.00,,---,0.00,VWS V14.01,2013-06-18 17:17:00,
2013-06-18 13:20:00,72.9,67.1,29.84,WSW,245,3.0,4.0,82,0.00,,---,0.00,VWS V14.01,2013-06-18 17:20:00,
2013-06-18 13:22:00,72.8,67.0,29.83,WSW,246,0.0,3.0,82,0.00,,---,0.00,VWS V14.01,2013-06-18 17:22:00,
2013-06-18 13:27:00,72.6,66.4,29.83,SSW,211,5.0,6.0,81,0.00,,---,0.00,VWS V14.01,2013-06-18 17:27:00,
2013-06-18 13:30:00,72.4,66.6,29.83,WSW,240,2.0,6.0,82,0.00,,---,0.00,VWS V14.01,2013-06-18 17:30:00,
2013-06-18 13:32:00,72.3,66.8,29.83,SW,222,3.0,4.0,83,0.00,,---,0.00,VWS V14.01,2013-06-18 17:32:00,
2013-06-18 13:37:00,72.3,66.8,29.83,WSW,246,0.0,4.0,83,0.00,,---,0.00,VWS V14.01,2013-06-18 17:37:00,
2013-06-18 13:40:00,72.5,67.1,29.83,WSW,238,0.0,4.0,83,0.00,,---,0.00,VWS V14.01,2013-06-18 17:40:00,
2013-06-18 13:42:00,72.6,66.8,29.83,West,260,0.0,3.0,82,0.00,,---,0.00,VWS V14.01,2013-06-18 17:42:00,
2013-06-18 13:47:00,72.6,66.8,29.83,WNW,295,0.0,4.0,82,0.00,,---,0.00,VWS V14.01,2013-06-18 17:47:00,
2013-06-18 13:50:00,72.6,66.4,29.83,WSW,239,0.0,4.0,81,0.00,,---,0.00,VWS V14.01,2013-06-18 17:50:00,
2013-06-18 13:52:00,72.9,67.1,29.83,SW,236,0.0,0.0,82,0.00,,---,0.00,VWS V14.01,2013-06-18 17:52:00,
2013-06-18 13:57:00,72.9,67.1,29.83,West,272,1.0,4.0,82,0.00,,---,0.00,VWS V14.01,2013-06-18 17:57:00,
2013-06-18 14:00:00,72.9,67.1,29.84,WSW,250,5.0,5.0,82,0.00,,---,0.00,VWS V14.01,2013-06-18 18:00:00,
2013-06-18 14:02:00,72.9,67.1,29.83,NE,46,0.0,4.0,82,0.00,,---,0.00,VWS V14.01,2013-06-18 18:02:00,
2013-06-18 14:07:00,72.8,67.0,29.84,West,261,3.0,6.0,82,0.00,,---,0.00,VWS V14.01,2013-06-18 18:07:00,
2013-06-18 14:10:00,72.7,66.9,29.84,West,268,1.0,6.0,82,0.00,,---,0.00,VWS V14.01,2013-06-18 18:10:00,
2013-06-18 14:12:00,72.7,66.9,29.84,WSW,237,3.0,6.0,82,0.00,,---,0.00,VWS V14.01,2013-06-18 18:12:00,
2013-06-18 14:17:00,72.5,67.1,29.83,SW,224,0.0,8.0,83,0.00,,---,0.00,VWS V14.01,2013-06-18 18:17:00,
2013-06-18 14:20:00,72.6,67.8,29.83,WNW,288,0.0,8.0,85,0.00,,---,0.00,VWS V14.01,2013-06-18 18:20:00,
2013-06-18 14:22:00,72.9,67.4,29.84,ENE,62,1.0,6.0,83,0.00,,---,0.00,VWS V14.01,2013-06-18 18:22:00,
2013-06-18 14:27:00,73.0,67.2,29.83,SSW,194,2.0,6.0,82,0.00,,---,0.00,VWS V14.01,2013-06-18 18:27:00,
2013-06-18 14:30:00,73.0,66.8,29.83,SW,233,0.0,8.0,81,0.00,,---,0.00,VWS V14.01,2013-06-18 18:30:00,
2013-06-18 14:32:00,73.1,66.9,29.83,NE,53,2.0,4.0,81,0.00,,---,0.00,VWS V14.01,2013-06-18 18:32:00,
2013-06-18 14:37:00,73.2,66.7,29.83,SSW,200,1.0,4.0,80,0.00,,---,0.00,VWS V14.01,2013-06-18 18:37:00,
2013-06-18 14:40:00,73.3,66.4,29.83,WSW,248,0.0,6.0,79,0.00,,---,0.00,VWS V14.01,2013-06-18 18:40:00,
2013-06-18 14:42:00,73.2,66.3,29.82,SSW,210,3.0,7.0,79,0.00,,---,0.00,VWS V14.01,2013-06-18 18:42:00,
2013-06-18 14:47:00,72.9,66.4,29.82,South,175,1.0,7.0,80,0.00,,---,0.00,VWS V14.01,2013-06-18 18:47:00,
2013-06-18 14:50:00,72.9,66.7,29.82,SSW,203,7.0,7.0,81,0.00,,---,0.00,VWS V14.01,2013-06-18 18:50:00,
2013-06-18 14:52:00,72.8,66.6,29.82,East,97,0.0,8.0,81,0.00,,---,0.00,VWS V14.01,2013-06-18 18:52:00,
2013-06-18 14:57:00,73.0,66.5,29.82,West,276,0.0,8.0,80,0.00,,---,0.00,VWS V14.01,2013-06-18 18:57:00,
2013-06-18 15:00:00,73.1,66.2,29.82,SW,221,0.0,8.0,79,0.00,,---,0.00,VWS V14.01,2013-06-18 19:00:00,
2013-06-18 15:02:00,73.5,66.2,29.82,SW,217,2.0,7.0,78,0.00,,---,0.00,VWS V14.01,2013-06-18 19:02:00,
2013-06-18 15:07:00,73.5,66.2,29.82,WSW,237,0.0,7.0,78,0.00,,---,0.00,VWS V14.01,2013-06-18 19:07:00,
2013-06-18 15:10:00,73.5,66.2,29.82,SW,218,2.0,7.0,78,0.00,,---,0.00,VWS V14.01,2013-06-18 19:10:00,
2013-06-18 15:12:00,73.8,66.5,29.81,SW,222,0.0,4.0,78,0.00,,---,0.00,VWS V14.01,2013-06-18 19:12:00,
2013-06-18 15:17:00,74.1,66.8,29.81,NNE,23,0.0,4.0,78,0.00,,---,0.00,VWS V14.01,2013-06-18 19:17:00,
2013-06-18 15:20:00,74.2,66.5,29.81,NNE,19,2.0,4.0,77,0.00,,---,0.00,VWS V14.01,2013-06-18 19:20:00,
2013-06-18 15:22:00,74.6,66.9,29.81,East,84,0.0,5.0,77,0.00,,---,0.00,VWS V14.01,2013-06-18 19:22:00,
2013-06-18 15:27:00,74.9,66.8,29.81,SW,233,0.0,5.0,76,0.00,,---,0.00,VWS V14.01,2013-06-18 19:27:00,
2013-06-18 15:30:00,75.2,66.3,29.81,East,98,0.0,5.0,74,0.00,,---,0.00,VWS V14.01,2013-06-18 19:30:00,
2013-06-18 15:32:00,75.4,65.3,29.81,ESE,121,0.0,4.0,71,0.00,,---,0.00,VWS V14.01,2013-06-18 19:32:00,
2013-06-18 15:37:00,75.8,65.7,29.80,East,94,0.0,4.0,71,0.00,,---,0.00,VWS V14.01,2013-06-18 19:37:00,
2013-06-18 15:40:00,75.8,65.3,29.80,WSW,246,3.0,8.0,70,0.00,,---,0.00,VWS V14.01,2013-06-18 19:40:00,
2013-06-18 15:42:00,75.7,65.6,29.80,WSW,241,0.0,4.0,71,0.00,,---,0.00,VWS V14.01,2013-06-18 19:42:00,
2013-06-18 15:47:00,75.8,65.3,29.80,SE,138,0.0,4.0,70,0.00,,---,0.00,VWS V14.01,2013-06-18 19:47:00,
2013-06-18 15:50:00,75.8,64.9,29.80,WSW,254,0.0,5.0,69,0.00,,---,0.00,VWS V14.01,2013-06-18 19:50:00,
2013-06-18 15:52:00,75.6,65.5,29.80,WNW,303,1.0,5.0,71,0.00,,---,0.00,VWS V14.01,2013-06-18 19:52:00,
2013-06-18 15:57:00,75.3,64.8,29.80,SSE,152,0.0,6.0,70,0.00,,---,0.00,VWS V14.01,2013-06-18 19:57:00,
2013-06-18 16:00:00,75.3,64.4,29.80,NNE,22,3.0,6.0,69,0.00,,---,0.00,VWS V14.01,2013-06-18 20:00:00,
2013-06-18 16:02:00,75.4,65.3,29.80,West,280,0.0,4.0,71,0.00,,---,0.00,VWS V14.01,2013-06-18 20:02:00,
2013-06-18 16:07:00,75.7,65.6,29.80,WNW,296,0.0,6.0,71,0.00,,---,0.00,VWS V14.01,2013-06-18 20:07:00,
2013-06-18 16:10:00,75.6,65.5,29.80,WSW,242,2.0,6.0,71,0.00,,---,0.00,VWS V14.01,2013-06-18 20:10:00,
2013-06-18 16:12:00,75.8,65.7,29.80,WSW,238,0.0,3.0,71,0.00,,---,0.00,VWS V14.01,2013-06-18 20:12:00,
2013-06-18 16:17:00,75.8,65.7,29.80,NNW,330,0.0,6.0,71,0.00,,---,0.00,VWS V14.01,2013-06-18 20:17:00,
2013-06-18 16:20:00,75.8,65.7,29.80,East,84,1.0,6.0,71,0.00,,---,0.00,VWS V14.01,2013-06-18 20:20:00,
2013-06-18 16:22:00,75.7,65.6,29.80,ENE,63,1.0,4.0,71,0.00,,---,0.00,VWS V14.01,2013-06-18 20:22:00,
2013-06-18 16:27:00,75.4,64.5,29.80,SSW,209,7.0,8.0,69,0.00,,---,0.00,VWS V14.01,2013-06-18 20:27:00,
2013-06-18 16:30:00,75.2,64.8,29.80,SW,215,4.0,8.0,70,0.00,,---,0.00,VWS V14.01,2013-06-18 20:30:00,
2013-06-18 16:32:00,75.0,65.8,29.80,West,260,1.0,4.0,73,0.00,,---,0.00,VWS V14.01,2013-06-18 20:32:00,
2013-06-18 16:37:00,75.3,66.1,29.80,WSW,250,0.0,4.0,73,0.00,,---,0.00,VWS V14.01,2013-06-18 20:37:00,
2013-06-18 16:40:00,75.2,65.6,29.80,SW,224,0.0,4.0,72,0.00,,---,0.00,VWS V14.01,2013-06-18 20:40:00,
2013-06-18 16:42:00,75.2,65.6,29.80,SW,231,3.0,4.0,72,0.00,,---,0.00,VWS V14.01,2013-06-18 20:42:00,
2013-06-18 16:47:00,74.9,65.7,29.80,WSW,257,0.0,6.0,73,0.00,,---,0.00,VWS V14.01,2013-06-18 20:47:00,
2013-06-18 16:50:00,74.8,65.6,29.80,WSW,240,3.0,6.0,73,0.00,,---,0.00,VWS V14.01,2013-06-18 20:50:00,
2013-06-18 16:52:00,74.4,65.6,29.80,WSW,249,0.0,4.0,74,0.00,,---,0.00,VWS V14.01,2013-06-18 20:52:00,
2013-06-18 16:57:00,74.1,66.1,29.80,ENE,59,0.0,5.0,76,0.00,,---,0.00,VWS V14.01,2013-06-18 20:57:00,
2013-06-18 17:00:00,74.0,65.6,29.79,SSW,196,2.0,5.0,75,0.00,,---,0.00,VWS V14.01,2013-06-18 21:00:00,
2013-06-18 17:03:00,73.8,65.8,29.79,SSW,209,1.0,3.0,76,0.00,,---,0.00,VWS V14.01,2013-06-18 21:03:00,
2013-06-18 17:08:00,74.0,66.0,29.79,SW,226,0.0,4.0,76,0.00,,---,0.00,VWS V14.01,2013-06-18 21:08:00,
2013-06-18 17:10:00,74.2,66.2,29.79,SW,232,0.0,4.0,76,0.00,,---,0.00,VWS V14.01,2013-06-18 21:10:00,
2013-06-18 17:13:00,74.6,66.5,29.80,SSE,165,5.0,5.0,76,0.00,,---,0.00,VWS V14.01,2013-06-18 21:13:00,
2013-06-18 17:18:00,74.7,65.9,29.79,SW,215,0.0,5.0,74,0.00,,---,0.00,VWS V14.01,2013-06-18 21:18:00,
2013-06-18 17:20:00,74.7,66.3,29.79,SSW,210,3.0,5.0,75,0.00,,---,0.00,VWS V14.01,2013-06-18 21:20:00,
2013-06-18 17:23:00,74.4,66.0,29.80,WSW,250,0.0,4.0,75,0.00,,---,0.00,VWS V14.01,2013-06-18 21:23:00,
2013-06-18 17:28:00,74.3,65.9,29.80,SW,215,1.0,4.0,75,0.00,,---,0.00,VWS V14.01,2013-06-18 21:28:00,
2013-06-18 17:30:00,74.3,65.9,29.80,South,182,0.0,4.0,75,0.00,,---,0.00,VWS V14.01,2013-06-18 21:30:00,
2013-06-18 17:33:00,74.4,65.2,29.80,NE,44,1.0,3.0,73,0.00,,---,0.00,VWS V14.01,2013-06-18 21:33:00,
2013-06-18 17:38:00,74.8,65.6,29.80,WSW,256,0.0,4.0,73,0.00,,---,0.00,VWS V14.01,2013-06-18 21:38:00,
2013-06-18 17:40:00,74.9,65.7,29.80,WSW,249,1.0,4.0,73,0.00,,---,0.00,VWS V14.01,2013-06-18 21:40:00,
2013-06-18 17:43:00,75.0,64.6,29.80,WNW,295,6.0,7.0,70,0.00,,---,0.00,VWS V14.01,2013-06-18 21:43:00,
2013-06-18 17:48:00,74.8,65.2,29.80,NNE,13,1.0,9.0,72,0.00,,---,0.00,VWS V14.01,2013-06-18 21:48:00,
2013-06-18 17:50:00,74.8,65.2,29.80,East,94,1.0,9.0,72,0.00,,---,0.00,VWS V14.01,2013-06-18 21:50:00,
2013-06-18 17:53:00,75.0,65.4,29.80,NW,320,0.0,4.0,72,0.00,,---,0.00,VWS V14.01,2013-06-18 21:53:00,
2013-06-18 17:58:00,74.6,65.0,29.80,NW,306,5.0,8.0,72,0.00,,---,0.00,VWS V14.01,2013-06-18 21:58:00,
2013-06-18 18:00:00,74.6,65.0,29.80,SSW,207,4.0,8.0,72,0.00,,---,0.00,VWS V14.01,2013-06-18 22:00:00,
2013-06-18 18:03:00,74.1,64.5,29.81,WNW,300,3.0,7.0,72,0.00,,---,0.00,VWS V14.01,2013-06-18 22:03:00,
2013-06-18 18:08:00,73.7,65.3,29.81,WNW,298,2.0,7.0,75,0.00,,---,0.00,VWS V14.01,2013-06-18 22:08:00,
2013-06-18 18:10:00,73.6,65.2,29.81,WSW,256,0.0,7.0,75,0.00,,---,0.00,VWS V14.01,2013-06-18 22:10:00,
2013-06-18 18:13:00,73.6,65.2,29.81,North,360,2.0,6.0,75,0.00,,---,0.00,VWS V14.01,2013-06-18 22:13:00,
2013-06-18 18:18:00,73.1,65.5,29.81,NW,317,2.0,6.0,77,0.00,,---,0.00,VWS V14.01,2013-06-18 22:18:00,
2013-06-18 18:20:00,73.1,65.5,29.81,NW,309,1.0,6.0,77,0.00,,---,0.00,VWS V14.01,2013-06-18 22:20:00,
2013-06-18 18:23:00,72.9,65.3,29.81,North,5,0.0,4.0,77,0.00,,---,0.00,VWS V14.01,2013-06-18 22:23:00,
2013-06-18 18:28:00,72.7,65.4,29.81,NW,310,0.0,4.0,78,0.00,,---,0.00,VWS V14.01,2013-06-18 22:28:00,
2013-06-18 18:30:00,72.6,65.3,29.81,NW,326,3.0,4.0,78,0.00,,---,0.00,VWS V14.01,2013-06-18 22:30:00,
2013-06-18 18:33:00,72.4,65.2,29.81,NNW,327,1.0,4.0,78,0.00,,---,0.00,VWS V14.01,2013-06-18 22:33:00,
2013-06-18 18:38:00,72.1,64.9,29.81,NW,310,3.0,6.0,78,0.00,,---,0.00,VWS V14.01,2013-06-18 22:38:00,
2013-06-18 18:40:00,72.0,64.8,29.81,NW,326,2.0,6.0,78,0.00,,---,0.00,VWS V14.01,2013-06-18 22:40:00,
2013-06-18 18:43:00,71.9,65.0,29.81,NNE,19,1.0,6.0,79,0.00,,---,0.00,VWS V14.01,2013-06-18 22:43:00,
2013-06-18 18:48:00,71.9,65.0,29.81,NNW,327,2.0,6.0,79,0.00,,---,0.00,VWS V14.01,2013-06-18 22:48:00,
2013-06-18 18:50:00,71.9,65.0,29.81,NW,306,3.0,6.0,79,0.00,,---,0.00,VWS V14.01,2013-06-18 22:50:00,
2013-06-18 18:53:00,71.7,65.2,29.82,NW,317,3.0,4.0,80,0.00,,---,0.00,VWS V14.01,2013-06-18 22:53:00,
2013-06-18 18:58:00,71.7,65.2,29.82,NNW,342,0.0,4.0,80,0.00,,---,0.00,VWS V14.01,2013-06-18 22:58:00,
2013-06-18 19:00:00,71.8,65.3,29.82,NNW,342,1.0,4.0,80,0.00,,---,0.00,VWS V14.01,2013-06-18 23:00:00,
2013-06-18 19:03:00,71.6,65.1,29.81,NW,306,1.0,5.0,80,0.00,,---,0.00,VWS V14.01,2013-06-18 23:03:00,
2013-06-18 19:08:00,71.7,65.6,29.82,WNW,284,0.0,5.0,81,0.00,,---,0.00,VWS V14.01,2013-06-18 23:08:00,
2013-06-18 19:10:00,71.8,65.7,29.82,NW,318,1.0,5.0,81,0.00,,---,0.00,VWS V14.01,2013-06-18 23:10:00,
2013-06-18 19:13:00,71.7,65.2,29.82,WSW,248,0.0,2.0,80,0.00,,---,0.00,VWS V14.01,2013-06-18 23:13:00,
2013-06-18 19:18:00,71.6,65.1,29.82,NW,326,0.0,3.0,80,0.00,,---,0.00,VWS V14.01,2013-06-18 23:18:00,
2013-06-18 19:20:00,71.6,65.5,29.82,NW,319,0.0,3.0,81,0.00,,---,0.00,VWS V14.01,2013-06-18 23:20:00,
2013-06-18 19:23:00,71.6,65.5,29.82,NW,321,0.0,1.0,81,0.00,,---,0.00,VWS V14.01,2013-06-18 23:23:00,
2013-06-18 19:28:00,71.7,65.6,29.83,NE,53,0.0,2.0,81,0.00,,---,0.00,VWS V14.01,2013-06-18 23:28:00,
2013-06-18 19:30:00,71.7,65.6,29.83,NE,53,0.0,2.0,81,0.00,,---,0.00,VWS V14.01,2013-06-18 23:30:00,
2013-06-18 19:33:00,71.7,65.6,29.83,NE,34,0.0,2.0,81,0.00,,---,0.00,VWS V14.01,2013-06-18 23:33:00,
2013-06-18 19:38:00,71.7,65.2,29.83,NNE,20,0.0,2.0,80,0.00,,---,0.00,VWS V14.01,2013-06-18 23:38:00,
2013-06-18 19:40:00,71.7,65.2,29.83,NNE,20,0.0,2.0,80,0.00,,---,0.00,VWS V14.01,2013-06-18 23:40:00,
2013-06-18 19:43:00,71.9,65.4,29.83,NNW,328,0.0,2.0,80,0.00,,---,0.00,VWS V14.01,2013-06-18 23:43:00,
2013-06-18 19:48:00,72.0,65.9,29.82,WSW,249,0.0,2.0,81,0.00,,---,0.00,VWS V14.01,2013-06-18 23:48:00,
2013-06-18 19:50:00,72.0,65.5,29.82,WSW,249,0.0,2.0,80,0.00,,---,0.00,VWS V14.01,2013-06-18 23:50:00,
2013-06-18 19:53:00,71.9,65.4,29.83,ESE,114,0.0,1.0,80,0.00,,---,0.00,VWS V14.01,2013-06-18 23:53:00,
2013-06-18 19:58:00,71.4,65.3,29.83,ENE,78,0.0,1.0,81,0.00,,---,0.00,VWS V14.01,2013-06-18 23:58:00,
2013-06-18 20:00:00,71.3,65.5,29.83,ENE,78,0.0,1.0,82,0.00,,---,0.00,VWS V14.01,2013-06-19 00:00:00,
2013-06-18 20:03:00,71.2,65.4,29.83,NE,39,0.0,1.0,82,0.00,,---,0.00,VWS V14.01,2013-06-19 00:03:00,
2013-06-18 20:08:00,71.0,65.2,29.83,NE,39,0.0,1.0,82,0.00,,---,0.00,VWS V14.01,2013-06-19 00:08:00,
2013-06-18 20:10:00,71.0,65.2,29.83,NE,39,0.0,1.0,82,0.00,,---,0.00,VWS V14.01,2013-06-19 00:10:00,
2013-06-18 20:13:00,70.7,64.9,29.83,NE,35,1.0,1.0,82,0.00,,---,0.00,VWS V14.01,2013-06-19 00:13:00,
2013-06-18 20:18:00,70.3,64.9,29.83,NE,54,0.0,2.0,83,0.00,,---,0.00,VWS V14.01,2013-06-19 00:18:00,
2013-06-18 20:20:00,70.3,64.9,29.83,NE,38,0.0,2.0,83,0.00,,---,0.00,VWS V14.01,2013-06-19 00:20:00,
2013-06-18 20:23:00,70.2,64.8,29.84,NNE,22,0.0,3.0,83,0.00,,---,0.00,VWS V14.01,2013-06-19 00:23:00,
2013-06-18 20:28:00,70.0,64.9,29.84,ENE,71,0.0,3.0,84,0.00,,---,0.00,VWS V14.01,2013-06-19 00:28:00,
2013-06-18 20:30:00,70.0,64.9,29.84,ENE,69,0.0,3.0,84,0.00,,---,0.00,VWS V14.01,2013-06-19 00:30:00,
2013-06-18 20:33:00,69.8,64.8,29.84,ENE,59,1.0,3.0,84,0.00,,---,0.00,VWS V14.01,2013-06-19 00:33:00,
2013-06-18 20:38:00,69.5,64.5,29.84,East,82,0.0,3.0,84,0.00,,---,0.00,VWS V14.01,2013-06-19 00:38:00,
2013-06-18 20:40:00,69.5,64.5,29.84,East,82,0.0,3.0,84,0.00,,---,0.00,VWS V14.01,2013-06-19 00:40:00,
2013-06-18 20:43:00,69.3,64.3,29.84,NE,49,0.0,2.0,84,0.00,,---,0.00,VWS V14.01,2013-06-19 00:43:00,
2013-06-18 20:48:00,69.2,64.2,29.84,NNE,16,0.0,3.0,84,0.00,,---,0.00,VWS V14.01,2013-06-19 00:48:00,
2013-06-18 20:50:00,69.2,64.2,29.84,NNE,31,0.0,3.0,84,0.00,,---,0.00,VWS V14.01,2013-06-19 00:50:00,
2013-06-18 20:53:00,69.0,64.3,29.84,NNE,28,0.0,0.0,85,0.00,,---,0.00,VWS V14.01,2013-06-19 00:53:00,
2013-06-18 20:58:00,68.8,64.1,29.84,NNE,23,0.0,0.0,85,0.00,,---,0.00,VWS V14.01,2013-06-19 00:58:00,
2013-06-18 21:00:00,68.7,64.0,29.84,NNE,22,0.0,0.0,85,0.00,,---,0.00,VWS V14.01,2013-06-19 01:00:00,
2013-06-18 21:03:00,68.5,64.2,29.84,NNE,22,0.0,0.0,86,0.00,,---,0.00,VWS V14.01,2013-06-19 01:03:00,
2013-06-18 21:08:00,68.2,64.2,29.84,NNE,23,0.0,0.0,87,0.00,,---,0.00,VWS V14.01,2013-06-19 01:08:00,
2013-06-18 21:10:00,68.2,64.2,29.84,NNE,23,0.0,0.0,87,0.00,,---,0.00,VWS V14.01,2013-06-19 01:10:00,
2013-06-18 21:13:00,68.1,64.1,29.85,North,351,0.0,0.0,87,0.00,,---,0.00,VWS V14.01,2013-06-19 01:13:00,
2013-06-18 21:18:00,68.0,64.0,29.85,NNW,346,0.0,0.0,87,0.00,,---,0.00,VWS V14.01,2013-06-19 01:18:00,
2013-06-18 21:20:00,68.0,64.0,29.85,NNW,346,0.0,0.0,87,0.00,,---,0.00,VWS V14.01,2013-06-19 01:20:00,
2013-06-18 21:23:00,67.8,63.8,29.85,NNW,346,0.0,0.0,87,0.00,,---,0.00,VWS V14.01,2013-06-19 01:23:00,
2013-06-18 21:28:00,67.5,63.5,29.85,NNW,346,0.0,0.0,87,0.00,,---,0.00,VWS V14.01,2013-06-19 01:28:00,
2013-06-18 21:30:00,67.5,63.5,29.85,NNW,346,0.0,0.0,87,0.00,,---,0.00,VWS V14.01,2013-06-19 01:30:00,
2013-06-18 21:33:00,67.2,63.5,29.85,NNW,346,0.0,0.0,88,0.00,,---,0.00,VWS V14.01,2013-06-19 01:33:00,
2013-06-18 21:38:00,67.1,63.4,29.85,NNW,346,0.0,0.0,88,0.00,,---,0.00,VWS V14.01,2013-06-19 01:38:00,
2013-06-18 21:40:00,67.1,63.4,29.85,NNW,346,0.0,0.0,88,0.00,,---,0.00,VWS V14.01,2013-06-19 01:40:00,
2013-06-18 21:43:00,66.9,63.6,29.85,NNW,346,0.0,0.0,89,0.00,,---,0.00,VWS V14.01,2013-06-19 01:43:00,
2013-06-18 21:48:00,66.7,63.4,29.86,NNW,346,0.0,0.0,89,0.00,,---,0.00,VWS V14.01,2013-06-19 01:48:00,
2013-06-18 21:50:00,66.6,63.3,29.86,NNW,346,0.0,0.0,89,0.00,,---,0.00,VWS V14.01,2013-06-19 01:50:00,
2013-06-18 21:53:00,66.4,63.4,29.86,NNW,346,0.0,0.0,90,0.00,,---,0.00,VWS V14.01,2013-06-19 01:53:00,
2013-06-18 21:58:00,66.4,63.4,29.86,NNW,346,0.0,0.0,90,0.00,,---,0.00,VWS V14.01,2013-06-19 01:58:00,
2013-06-18 22:00:00,66.4,63.4,29.86,NNW,346,0.0,0.0,90,0.00,,---,0.00,VWS V14.01,2013-06-19 02:00:00,
2013-06-18 22:03:00,66.7,63.7,29.86,NNW,346,0.0,0.0,90,0.00,,---,0.00,VWS V14.01,2013-06-19 02:03:00,
2013-06-18 22:08:00,66.8,63.8,29.86,NNW,346,0.0,0.0,90,0.00,,---,0.00,VWS V14.01,2013-06-19 02:08:00,
2013-06-18 22:10:00,66.7,63.7,29.86,NNW,346,0.0,0.0,90,0.00,,---,0.00,VWS V14.01,2013-06-19 02:10:00,
2013-06-18 22:13:00,66.7,63.7,29.86,NNW,346,0.0,0.0,90,0.00,,---,0.00,VWS V14.01,2013-06-19 02:13:00,
2013-06-18 22:18:00,66.6,63.6,29.87,NNW,346,0.0,0.0,90,0.00,,---,0.00,VWS V14.01,2013-06-19 02:18:00,
2013-06-18 22:20:00,66.6,63.6,29.87,NNW,346,0.0,0.0,90,0.00,,---,0.00,VWS V14.01,2013-06-19 02:20:00,
2013-06-18 22:23:00,66.5,63.8,29.87,NNW,346,0.0,0.0,91,0.00,,---,0.00,VWS V14.01,2013-06-19 02:23:00,
2013-06-18 22:29:00,66.4,63.7,29.87,NNW,346,0.0,0.0,91,0.00,,---,0.00,VWS V14.01,2013-06-19 02:29:00,
2013-06-18 22:30:00,66.4,63.7,29.87,NNW,346,0.0,0.0,91,0.00,,---,0.00,VWS V14.01,2013-06-19 02:30:00,
2013-06-18 22:34:00,66.4,63.7,29.88,NNW,346,0.0,0.0,91,0.00,,---,0.00,VWS V14.01,2013-06-19 02:34:00,
2013-06-18 22:39:00,66.4,63.7,29.88,NNW,346,0.0,0.0,91,0.00,,---,0.00,VWS V14.01,2013-06-19 02:39:00,
2013-06-18 22:40:00,66.4,63.7,29.88,NNW,346,0.0,0.0,91,0.00,,---,0.00,VWS V14.01,2013-06-19 02:40:00,
2013-06-18 22:44:00,66.4,63.7,29.88,NNW,346,0.0,0.0,91,0.00,,---,0.00,VWS V14.01,2013-06-19 02:44:00,
2013-06-18 22:49:00,66.4,63.7,29.88,NNW,346,0.0,0.0,91,0.00,,---,0.00,VWS V14.01,2013-06-19 02:49:00,
2013-06-18 22:50:00,66.4,63.7,29.88,NNW,346,0.0,0.0,91,0.00,,---,0.00,VWS V14.01,2013-06-19 02:50:00,
2013-06-18 22:54:00,66.6,63.9,29.88,NNW,346,0.0,0.0,91,0.00,,---,0.00,VWS V14.01,2013-06-19 02:54:00,
2013-06-18 22:59:00,66.6,63.9,29.88,NNW,346,0.0,0.0,91,0.00,,---,0.00,VWS V14.01,2013-06-19 02:59:00,
2013-06-18 23:00:00,66.6,63.9,29.88,NNW,346,0.0,0.0,91,0.00,,---,0.00,VWS V14.01,2013-06-19 03:00:00,
2013-06-18 23:04:00,66.5,63.8,29.88,NNW,346,0.0,0.0,91,0.00,,---,0.00,VWS V14.01,2013-06-19 03:04:00,
2013-06-18 23:09:00,66.5,63.8,29.88,NNW,346,0.0,0.0,91,0.00,,---,0.00,VWS V14.01,2013-06-19 03:09:00,
2013-06-18 23:10:00,66.5,63.8,29.88,NNW,346,0.0,0.0,91,0.00,,---,0.00,VWS V14.01,2013-06-19 03:10:00,
2013-06-18 23:14:00,66.5,63.8,29.88,NNW,346,0.0,0.0,91,0.00,,---,0.00,VWS V14.01,2013-06-19 03:14:00,
2013-06-18 23:19:00,66.4,63.7,29.87,NNW,346,0.0,0.0,91,0.00,,---,0.00,VWS V14.01,2013-06-19 03:19:00,
2013-06-18 23:20:00,66.4,63.7,29.87,NNW,346,0.0,0.0,91,0.00,,---,0.00,VWS V14.01,2013-06-19 03:20:00,
2013-06-18 23:24:00,66.3,63.6,29.88,NNW,346,0.0,0.0,91,0.00,,---,0.00,VWS V14.01,2013-06-19 03:24:00,
2013-06-18 23:29:00,66.2,63.8,29.88,NNW,346,0.0,0.0,92,0.00,,---,0.00,VWS V14.01,2013-06-19 03:29:00,
2013-06-18 23:30:00,66.2,63.8,29.88,NNW,346,0.0,0.0,92,0.00,,---,0.00,VWS V14.01,2013-06-19 03:30:00,
2013-06-18 23:34:00,66.1,63.7,29.88,NNW,346,0.0,0.0,92,0.00,,---,0.00,VWS V14.01,2013-06-19 03:34:00,
2013-06-18 23:39:00,66.1,63.7,29.88,NNW,346,0.0,0.0,92,0.00,,---,0.00,VWS V14.01,2013-06-19 03:39:00,
2013-06-18 23:40:00,66.1,63.7,29.88,NNW,346,0.0,0.0,92,0.00,,---,0.00,VWS V14.01,2013-06-19 03:40:00,
2013-06-18 23:44:00,66.2,63.8,29.88,NNW,346,0.0,0.0,92,0.00,,---,0.00,VWS V14.01,2013-06-19 03:44:00,
2013-06-18 23:49:00,66.3,63.6,29.88,NNW,346,0.0,0.0,91,0.00,,---,0.00,VWS V14.01,2013-06-19 03:49:00,
2013-06-18 23:50:00,66.3,63.6,29.88,NNW,346,0.0,0.0,91,0.00,,---,0.00,VWS V14.01,2013-06-19 03:50:00,
2013-06-18 23:54:00,66.4,63.7,29.89,NNW,329,0.0,0.0,91,0.00,,---,0.00,VWS V14.01,2013-06-19 03:54:00,
2013-06-18 23:59:00,66.5,63.8,29.89,NW,324,0.0,2.0,91,0.00,,---,0.00,VWS V14.01,2013-06-19 03:59:00,